Sturgeon Bay, WI

2:32 PM CDT on October 18, 2019 (GMT -0500)
Door County Cherryland

Weather History for KSUE - August, 2019

Change the Weather History Date:

Monday, August 26, 2019

  Actual Average Record
Temperature  
Mean Temperature 64 °F -  
Max Temperature 66 °F 76 °F 95 °F (1953)
Min Temperature 62 °F 59 °F 41 °F (1934)
Degree Days  
Heating Degree Days 1    
Growing Degree Days 14 (Base 50)    
Moisture  
Dew Point 63 °F    
Average Humidity 94    
Maximum Humidity 100    
Minimum Humidity 78    
Precipitation  
Precipitation 0.80 in - - ()
Sea Level Pressure  
Sea Level Pressure 29.79 in    
Wind  
Wind Speed 7 mph (SE)    
Max Wind Speed 10 mph    
Max Gust Speed 17 mph    
Visibility 7 miles    
Events Rain    
Averages and records for this station are not official NWS values.
T = Trace of Precipitation, MM = Missing Value Source: NWS Daily Summary

Daily Weather History Graph

Daily Weather History Graph

Search for Another Location

Airport or City:

Astronomy

Aug. 26, 2019 Rise Set
Actual Time 6:04 AM CDT 7:37 PM CDT
Civil Twilight 5:33 AM CDT 8:08 PM CDT
Nautical Twilight 4:56 AM CDT 8:45 PM CDT
Astronomical Twilight 4:16 AM CDT 9:25 PM CDT
Moon 1:20 AM CDT (8/26) 5:10 PM CDT (8/26)
Length of Visible Light 14h 34m
Length of Day
13h 33m
Waning Crescent, 19% of the Moon is Illuminated
Aug 26
Waning Crescent
Aug 30
New
Sep 5
First Quarter
Sep 13
Full
Sep 21
Last Quarter

Hourly Weather History & Observations

Time (CDT) Temp. Dew Point Humidity Pressure Visibility Wind Dir Wind Speed Gust Speed Precip Events Conditions
12:56 AM 64.0 °F 60.1 °F 87% 30.02 in 10.0 mi SE 6.9 mph - N/A   Mostly Cloudy
1:56 AM 66.0 °F 61.0 °F 84% 30.00 in 10.0 mi SE 6.9 mph - N/A   Clear
2:56 AM 66.0 °F 59.0 °F 78% 29.99 in 10.0 mi SE 8.1 mph - N/A   Clear
3:56 AM 66.0 °F 59.0 °F 78% 29.98 in 10.0 mi SE 10.4 mph - N/A   Partly Cloudy
4:56 AM 64.9 °F 59.0 °F 81% 29.97 in 10.0 mi SSE 5.8 mph - N/A   Partly Cloudy
5:56 AM 64.0 °F 60.1 °F 87% 29.96 in 10.0 mi SSE 6.9 mph - 0.00 in Rain Light Rain
6:56 AM 63.0 °F 60.1 °F 90% 29.95 in 10.0 mi ESE 5.8 mph - 0.00 in   Scattered Clouds
7:56 AM 64.0 °F 61.0 °F 90% 29.94 in 10.0 mi SE 8.1 mph - 0.00 in Rain Light Rain
8:56 AM 64.0 °F 62.1 °F 93% 29.93 in 10.0 mi ESE 4.6 mph - 0.00 in Rain Light Rain
9:56 AM 64.9 °F 63.0 °F 93% 29.92 in 9.0 mi SE 5.8 mph - 0.01 in Rain Light Rain
10:56 AM 64.9 °F 62.1 °F 90% 29.92 in 8.0 mi SSE 9.2 mph - 0.02 in Rain Light Rain
11:56 AM 64.0 °F 61.0 °F 90% 29.88 in 10.0 mi ESE 10.4 mph - 0.03 in Rain Light Rain
12:56 PM 64.9 °F 62.1 °F 90% 29.85 in 10.0 mi ESE 8.1 mph - 0.03 in Rain Light Rain
1:56 PM 64.9 °F 59.0 °F 81% 29.82 in 10.0 mi East 9.2 mph - 0.03 in   Overcast
2:56 PM 63.0 °F 62.1 °F 97% 29.80 in 4.0 mi ESE 8.1 mph 17.3 mph 0.03 in Rain Light Rain
3:11 PM 62.6 °F 62.6 °F 100% 29.79 in 10.0 mi East 9.2 mph - 0.01 in Rain Light Rain
3:23 PM 62.6 °F 62.6 °F 100% 29.79 in 5.0 mi ESE 5.8 mph - 0.01 in   Overcast
3:35 PM 62.6 °F 62.6 °F 100% 29.78 in 8.0 mi East 8.1 mph - 0.01 in Rain Light Rain
3:47 PM 62.6 °F 62.6 °F 100% 29.78 in 2.5 mi East 6.9 mph - 0.02 in Rain Light Rain
3:56 PM 63.0 °F 62.1 °F 97% 29.76 in 2.5 mi East 6.9 mph - 0.02 in Rain Light Rain
4:10 PM 62.6 °F 62.6 °F 100% 29.77 in 5.0 mi ESE 5.8 mph - 0.00 in Rain Light Rain
4:39 PM 64.4 °F 62.6 °F 94% 29.75 in 2.5 mi East 8.1 mph - 0.01 in Rain Rain
4:56 PM 64.0 °F 63.0 °F 96% 29.74 in 3.0 mi East 8.1 mph - 0.01 in Rain Rain
5:28 PM 64.4 °F 62.6 °F 94% 29.73 in 2.5 mi East 8.1 mph - 0.02 in Rain Light Rain
5:46 PM 64.4 °F 62.6 °F 94% 29.73 in 3.0 mi East 9.2 mph - 0.03 in Rain Light Rain
5:56 PM 64.0 °F 64.0 °F 100% 29.72 in 4.0 mi East 5.8 mph - 0.04 in Rain Light Rain
6:56 PM 64.9 °F 64.9 °F 100% 29.69 in 7.0 mi ESE 4.6 mph - 0.12 in Rain Light Rain
7:56 PM 66.0 °F 64.9 °F 96% 29.66 in 5.0 mi SE 6.9 mph - 0.07 in Rain Rain
8:30 PM 66.2 °F 64.4 °F 94% 29.66 in 6.0 mi SSE 9.2 mph - 0.03 in Rain Light Rain
8:56 PM 66.0 °F 64.9 °F 96% 29.65 in 9.0 mi SSE 9.2 mph - 0.04 in Rain Light Rain
9:56 PM 66.0 °F 64.9 °F 96% 29.63 in 8.0 mi Calm Calm - 0.05 in Rain Light Rain
10:16 PM 66.2 °F 66.2 °F 100% 29.64 in 5.0 mi West 3.5 mph - 0.04 in Rain Rain
10:29 PM 66.2 °F 66.2 °F 100% 29.63 in 2.5 mi SSE 8.1 mph - 0.07 in Rain Rain
10:43 PM 66.2 °F 66.2 °F 100% 29.63 in 5.0 mi SSW 3.5 mph - 0.11 in Rain Light Rain
10:56 PM 66.0 °F 66.0 °F 100% 29.62 in 8.0 mi Calm Calm - 0.14 in Rain Light Rain
11:22 PM 66.2 °F 66.2 °F 100% 29.61 in 10.0 mi Calm Calm - 0.07 in   Overcast
11:56 PM 66.0 °F 64.9 °F 96% 29.59 in 10.0 mi West 3.5 mph - 0.16 in   Overcast